Location: Unspecified
(43.9500°N, 64.7900°W)
Time: 10:46:53
(UTC-03:00)

ISS - Visible Passes

Search period start: 23 September 2018 00:00
Search period end: 03 October 2018 00:00
Orbit: 403 x 408 km, 51.6° (Epoch: 23 September)

Date Brightness Start Highest point End Pass type
(mag) Time Alt. Az. Time Alt. Az. Time Alt. Az.
23 Sep -3.9 20:46:24 10° WSW 20:49:42 88° SSE 20:50:28 50° ENE visible
24 Sep -3.5 19:54:39 10° SW 19:57:51 49° SE 20:01:00 10° ENE visible
24 Sep -1.8 21:31:26 10° W 21:33:42 29° NW 21:33:42 29° NW visible
25 Sep -2.9 20:39:14 10° W 20:42:26 46° NNW 20:44:03 24° NE visible
26 Sep -3.6 19:47:11 10° WSW 19:50:28 75° NNW 19:53:46 10° NE visible
26 Sep -1.6 21:24:36 10° WNW 21:26:59 23° NNW 21:26:59 23° NNW visible
27 Sep -2.1 20:32:18 10° W 20:35:15 29° NNW 20:37:08 17° NE visible
28 Sep -2.6 19:40:03 10° W 19:43:10 40° NNW 19:46:19 10° NE visible
28 Sep -1.5 21:17:41 10° NW 21:19:53 20° NNW 21:19:53 20° NNW visible
29 Sep -1.8 20:25:24 10° WNW 20:28:07 23° N 20:29:55 15° NE visible
29 Sep -0.2 22:02:34 10° NW 22:02:34 10° NW 22:02:34 10° NW visible
30 Sep -2.0 19:33:04 10° WNW 19:35:56 27° NNW 19:38:49 10° NE visible
30 Sep -1.6 21:10:32 10° NW 21:12:34 20° N 21:12:34 20° N visible
01 Oct -1.8 20:18:22 10° NW 20:20:58 21° N 20:22:32 15° NE visible
01 Oct -0.3 21:55:04 10° NW 21:55:12 11° NW 21:55:12 11° NW visible
02 Oct -1.8 19:26:05 10° WNW 19:28:44 22° N 19:31:23 10° NE visible
02 Oct -1.8 21:03:07 10° NW 21:05:09 23° NNW 21:05:09 23° NNW visible
